[[{"header":{"parameterUnit":"m.s-1","parameterCategory":1,"la1":30.2991,"la2":30.254,"lo1":-89.0895,"lo2":-89.0444,"dy":0.0017,"dx":0.0017,"nx":28,"ny":28,"refTime":"2025-04-18T21:00:00:Z","depth":0,"parameterNumber":2,"parameterNumberName":"U-component_of_WINDS"},"data":[0,0,0,0,0,0,0,0,0,0,0,0,0,0,0,0,0,0,0,0,0,0,0,0,0,0,0,0,0,0,0,0,0,0,0,0,0,0,0,0,0,0,0,0,0,0,0,0,0,0,0,0,0,0,0,0,0,0,-2.6504,-2.6505,0,-2.6558,-2.6558,-2.6559,-2.6576,-2.6575,-2.6575,-2.6575,-2.6629,-2.6631,-2.6633,0,0,0,0,0,0,0,0,0,0,0,0,0,-2.6418,-2.642,-2.6504,-2.6505,-2.6506,-2.6557,-2.6558,-2.6559,-2.6576,-2.6575,-2.6575,-2.6575,-2.6629,-2.6631,-2.6633,0,0,0,0,0,0,0,0,0,0,0,0,0,-2.6462,-2.642,-2.6504,-2.652,-2.6522,-2.6557,-2.6558,-2.6559,-2.6576,-2.6575,-2.6575,-2.6575,-2.6628,-2.6631,-2.6633,-2.6656,0,0,-2.6641,-2.6642,0,0,0,0,0,0,0,0,-2.646,-2.6465,-2.6517,-2.6519,-2.6521,-2.656,-2.6548,-2.6592,-2.6576,-2.6555,-2.6575,-2.6574,-2.6606,-2.6611,-2.6622,-2.6659,-2.6661,-2.6641,-2.6643,-2.6644,-2.6644,0,0,0,0,0,0,0,-2.6457,-2.6463,-2.6525,-2.6518,-2.652,-2.6525,-2.6531,-2.6556,-2.6582,-2.6557,-2.6558,-2.6564,-2.6608,-2.6619,-2.6623,-2.6662,-2.6641,-2.6643,-2.6645,-2.6646,-2.6723,-2.6723,0,0,0,0,0,0,-2.6451,-2.646,-2.6524,-2.6527,-2.6489,-2.6527,-2.6533,-2.6548,-2.6582,-2.6587,-2.6565,-2.6565,-2.6615,-2.662,-2.6625,-2.6655,-2.6644,-2.6646,-2.6648,-2.6722,-2.6723,-2.6724,0,0,0,0,0,0,-2.6449,-2.6456,-2.6522,-2.6494,-2.6503,-2.6529,-2.6545,-2.6549,-2.656,-2.6588,-2.6593,-2.6572,-2.6615,-2.6621,-2.6649,-2.6657,-2.6647,-2.665,-2.6722,-2.6723,-2.6723,-2.6715,0,0,0,0,0,0,-2.6446,-2.6455,-2.6464,-2.6494,-2.6504,-2.6544,-2.6545,-2.655,-2.6565,-2.6566,-2.6596,-2.66,-2.6615,-2.6645,-2.6651,-2.666,-2.6652,-2.6721,-2.6722,-2.6723,-2.6715,-2.6715,-2.6716,0,0,0,0,0,-2.6443,-2.6459,-2.6464,-2.6472,-2.6515,-2.6544,-2.655,-2.6567,-2.6565,-2.6574,-2.6593,-2.6599,-2.6656,-2.6648,-2.6655,-2.6665,-2.6721,-2.6722,-2.6723,-2.6714,-2.6715,-2.6716,0,0,0,0,0,0,-2.6429,-2.6463,-2.6469,-2.6495,-2.6517,-2.6547,-2.6559,-2.6567,-2.6589,-2.6589,-2.6609,-2.6616,-2.6642,-2.6656,-2.6647,-2.669,-2.6688,-2.6691,-2.6679,-2.668,-2.6681,-2.6677,-2.6654,0,0,0,0,0,-2.6429,-2.6449,-2.6478,-2.6499,-2.6509,-2.6532,-2.6545,-2.6557,-2.658,-2.6589,-2.6609,-2.6631,-2.6654,-2.6668,-2.669,-2.6717,-2.6725,-2.6728,-2.6729,-2.6729,-2.6731,-2.6747,-2.675,-2.6727,-2.6727,-2.6727,0,0,-2.6428,-2.645,-2.6461,-2.6496,-2.6514,-2.6535,-2.654,-2.6561,-2.6577,-2.6592,-2.6619,-2.6635,-2.6661,-2.6688,-2.6702,-2.6701,-2.6739,-2.6731,-2.6731,-2.6733,-2.6749,-2.6751,-2.6753,-2.6728,-2.6728,-2.6728,0,0,-2.6439,-2.6457,-2.6476,-2.6495,-2.6522,-2.6538,-2.6542,-2.6572,-2.6583,-2.6611,-2.6622,-2.6642,-2.6681,-2.6699,-2.6714,-2.6734,-2.6741,-2.6741,-2.6744,-2.676,-2.6761,-2.6763,-2.677,-2.6773,-2.6743,-2.6742,-2.6742,0,-2.6435,-2.6467,-2.6485,-2.6507,-2.6522,-2.6537,-2.6558,-2.6574,-2.6608,-2.6618,-2.6618,-2.6668,-2.6686,-2.6719,-2.6724,-2.6735,-2.6742,-2.6736,-2.676,-2.6761,-2.6763,-2.677,-2.6773,-2.6742,-2.6742,-2.6742,-2.6742,0,-2.6461,-2.6484,-2.6496,-2.6528,-2.6545,-2.6566,-2.6588,-2.6603,-2.6614,-2.663,-2.6658,-2.6682,-2.671,-2.6719,-2.6729,-2.6753,-2.6752,-2.6756,-2.6754,-2.6765,-2.6772,-2.6775,-2.6742,-2.6742,-2.6742,-2.6742,0,0,-2.6462,-2.6506,-2.651,-2.6525,-2.6557,-2.6575,-2.6597,-2.6625,-2.6638,-2.6661,-2.668,-2.6714,-2.6718,-2.6734,-2.6747,-2.6761,-2.6776,-2.6763,-2.6763,-2.6764,-2.6805,-2.6801,-2.6804,-2.6781,-2.6782,-2.6782,-2.6802,0,-2.6477,-2.6516,-2.6535,-2.6566,-2.6588,-2.6603,-2.6623,-2.6645,-2.6661,-2.6682,-2.67,-2.6723,-2.6726,-2.6737,-2.6751,-2.6771,-2.6784,-2.677,-2.68,-2.6801,-2.6792,-2.6808,-2.6804,-2.6822,-2.6805,-2.6806,-2.6806,0,-2.6498,-2.6522,-2.6556,-2.6587,-2.6596,-2.6613,-2.6641,-2.6661,-2.6687,-2.6698,-2.6717,-2.673,-2.6754,-2.6752,-2.6787,-2.6777,-2.6791,-2.6803,-2.6804,-2.6806,-2.6803,-2.6811,-2.6828,-2.683,-2.6811,-2.681,-2.681,0,-2.6496,-2.6536,-2.6562,-2.6574,-2.6611,-2.6623,-2.6639,-2.6665,-2.6681,-2.6705,-2.6716,-2.6743,-2.6757,-2.6779,-2.6798,-2.6795,-2.6832,-2.6831,-2.6842,-2.6841,-2.6847,-2.6847,-2.6866,-2.6858,-2.6858,-2.6857,-2.6857,0,-2.651,-2.653,-2.6561,-2.6577,-2.66,-2.6622,-2.6645,-2.6662,-2.6685,-2.6705,-2.6721,-2.6739,-2.6765,-2.6787,-2.6803,-2.683,-2.6836,-2.6846,-2.685,-2.6844,-2.6843,-2.6853,-2.6852,-2.6858,-2.6858,-2.6858,-2.6858,0,-2.651,-2.6532,-2.6561,-2.6594,-2.6603,-2.6619,-2.6647,-2.6663,-2.6681,-2.6706,-2.6713,-2.6741,-2.6768,-2.679,-2.6826,-2.6837,-2.6864,-2.6869,-2.6855,-2.6857,-2.6866,-2.6865,-2.6893,-2.6897,-2.6885,-2.6886,-2.6886,0,-2.6517,-2.6533,-2.6568,-2.6582,-2.6598,-2.6621,-2.6638,-2.666,-2.6677,-2.6709,-2.6722,-2.675,-2.6773,-2.6816,-2.6839,-2.6867,-2.6872,-2.688,-2.6876,-2.687,-2.6872,-2.6871,-2.6873,-2.688,-2.688,-2.688,-2.688,0,-2.6528,-2.6538,-2.6561,-2.6588,-2.6608,-2.663,-2.6653,-2.6665,-2.6691,-2.671,-2.6737,-2.6756,-2.6792,-2.682,-2.6851,-2.6868,-2.6878,-2.6881,-2.6885,-2.6879,-2.687,-2.6875,-2.6856,-2.688,-2.688,-2.688,-2.688,-2.688,-2.6532,-2.6547,-2.6574,-2.6599,-2.6619,-2.6641,-2.6658,-2.6678,-2.6702,-2.6733,-2.6745,-2.6774,-2.6801,-2.6843,-2.6861,-2.6884,-2.6885,-2.689,-2.6892,-2.6893,-2.6892,-2.6867,-2.6889,-2.6889,-2.6889,-2.689,-2.689,0,-2.6543,-2.6561,-2.6585,-2.6616,-2.6637,-2.6646,-2.6672,-2.6689,-2.6714,-2.6738,-2.6761,-2.6794,-2.6822,-2.6848,-2.6877,-2.6891,-2.6897,-2.6898,-2.6896,-2.69,-2.6889,-2.6883,-2.6893,-2.6893,-2.6893,-2.6893,-2.6893,-2.6893,-2.6551,-2.6577,-2.6591,-2.6628,-2.6647,-2.6674,-2.6689,-2.6709,-2.6729,-2.6764,-2.6787,-2.6805,-2.683,-2.6862,-2.6888,-2.6895,-2.6905,-2.6905,-2.6913,-2.6902,-2.6901,-2.69,-2.6895,-2.6907,-2.6907,-2.6923,-2.6923,-2.6923]},{"header":{"parameterUnit":"m.s-1","parameterCategory":1,"la1":30.2991,"la2":30.254,"lo1":-89.0895,"lo2":-89.0444,"dy":0.0017,"dx":0.0017,"nx":28,"ny":28,"refTime":"2025-04-18T21:00:00:Z","depth":0,"parameterNumber":3,"parameterNumberName":"V-component_of_WINDS"},"data":[0,0,0,0,0,0,0,0,0,0,0,0,0,0,0,0,0,0,0,0,0,0,0,0,0,0,0,0,0,0,0,0,0,0,0,0,0,0,0,0,0,0,0,0,0,0,0,0,0,0,0,0,0,0,0,0,0,0,5.4689,5.4688,0,5.4628,5.4627,5.4627,5.4592,5.4592,5.4591,5.4591,5.4524,5.4522,5.452,0,0,0,0,0,0,0,0,0,0,0,0,0,5.4772,5.477,5.4689,5.4688,5.4687,5.4628,5.4627,5.4626,5.4592,5.4592,5.4591,5.4591,5.4524,5.4522,5.452,0,0,0,0,0,0,0,0,0,0,0,0,0,5.4726,5.477,5.4689,5.4663,5.466,5.4628,5.4627,5.4626,5.4592,5.4592,5.4591,5.4591,5.4525,5.4523,5.452,5.4508,0,0,5.4512,5.4511,0,0,0,0,0,0,0,0,5.4728,5.4723,5.4667,5.4665,5.4661,5.4617,5.4632,5.4586,5.4592,5.4617,5.4591,5.4591,5.4555,5.455,5.4539,5.4505,5.4502,5.4512,5.4511,5.4509,5.4509,0,0,0,0,0,0,0,5.4732,5.4725,5.4664,5.4667,5.4663,5.4653,5.4647,5.4623,5.4587,5.4615,5.4613,5.4606,5.4553,5.4541,5.4537,5.4501,5.4512,5.451,5.4508,5.4507,5.4458,5.4458,0,0,0,0,0,0,5.4739,5.4728,5.4666,5.4663,5.4695,5.4652,5.4644,5.4631,5.4588,5.4581,5.4606,5.4605,5.4545,5.454,5.4534,5.4519,5.4509,5.4507,5.4506,5.4457,5.4458,5.4458,0,0,0,0,0,0,5.4741,5.4734,5.4669,5.4695,5.4686,5.4651,5.4636,5.463,5.4618,5.4581,5.4574,5.4601,5.4545,5.4538,5.4516,5.4516,5.4506,5.4504,5.4457,5.4458,5.4458,5.4488,0,0,0,0,0,0,5.4744,5.4735,5.473,5.4695,5.4684,5.4652,5.4636,5.4629,5.4615,5.4612,5.4574,5.4568,5.4544,5.452,5.4513,5.4513,5.4502,5.4457,5.4457,5.4458,5.4487,5.449,5.4492,0,0,0,0,0,5.4747,5.4739,5.473,5.4723,5.4678,5.4652,5.4646,5.4621,5.4615,5.461,5.4587,5.4569,5.4518,5.4518,5.451,5.4509,5.4457,5.4457,5.4458,5.4486,5.4489,5.4492,0,0,0,0,0,0,5.4773,5.4734,5.4724,5.4705,5.4683,5.4647,5.4639,5.4625,5.4602,5.46,5.4568,5.456,5.4542,5.4523,5.4524,5.4497,5.4485,5.4484,5.451,5.4512,5.4515,5.452,5.45,0,0,0,0,0,5.4777,5.4761,5.4727,5.4713,5.4703,5.4674,5.4661,5.4644,5.4619,5.4609,5.4584,5.4559,5.4538,5.4524,5.4502,5.4485,5.4477,5.448,5.4483,5.4485,5.4484,5.4477,5.4479,5.4459,5.4459,5.4459,0,0,5.4784,5.4761,5.4752,5.4718,5.4699,5.4683,5.4665,5.4648,5.4635,5.4605,5.4585,5.4566,5.4536,5.4518,5.4508,5.4501,5.4488,5.4485,5.4487,5.4485,5.4477,5.4479,5.4481,5.446,5.446,5.446,0,0,5.4789,5.4769,5.4757,5.474,5.4712,5.4693,5.4691,5.4658,5.4645,5.4624,5.4603,5.4587,5.455,5.4531,5.4516,5.4519,5.4503,5.4513,5.4525,5.4518,5.4519,5.4521,5.4523,5.4525,5.4512,5.4512,5.4512,0,5.48,5.4776,5.4752,5.4738,5.4724,5.47,5.4688,5.4671,5.4637,5.4628,5.4622,5.4578,5.4556,5.4534,5.4536,5.4524,5.4521,5.4516,5.4521,5.4522,5.4523,5.4525,5.4526,5.4514,5.4513,5.4513,5.4513,0,5.4793,5.4776,5.477,5.4742,5.4727,5.4713,5.4688,5.4676,5.4662,5.4644,5.4624,5.4598,5.4572,5.4565,5.4549,5.4542,5.4539,5.4528,5.4515,5.4527,5.4529,5.4529,5.4516,5.4515,5.4515,5.4514,0,0,5.4809,5.4772,5.4769,5.4758,5.4728,5.4714,5.47,5.4678,5.4669,5.4647,5.4636,5.4607,5.4598,5.4581,5.4563,5.4557,5.4565,5.4547,5.4546,5.4552,5.4558,5.4568,5.4569,5.4554,5.4554,5.4554,5.4561,0,5.481,5.4786,5.4767,5.475,5.4736,5.4715,5.4703,5.4684,5.4667,5.4652,5.4633,5.4615,5.4602,5.4593,5.4586,5.4565,5.4565,5.4564,5.4543,5.4542,5.4552,5.4569,5.4578,5.4586,5.4561,5.4561,5.4561,0,5.4807,5.4791,5.4773,5.4749,5.4742,5.4732,5.4711,5.4697,5.4675,5.4664,5.4649,5.4631,5.4616,5.4607,5.4587,5.4587,5.4577,5.4566,5.4566,5.4563,5.4553,5.4568,5.4587,5.4589,5.4562,5.4562,5.4562,0,5.4823,5.4796,5.4783,5.4773,5.4743,5.4737,5.4724,5.4703,5.4692,5.4673,5.4666,5.4645,5.4634,5.4619,5.4597,5.4592,5.458,5.4568,5.4571,5.4571,5.4568,5.4569,5.4588,5.4561,5.4561,5.4561,5.4561,0,5.4827,5.4817,5.479,5.4782,5.4772,5.475,5.474,5.4725,5.4707,5.4696,5.4675,5.4665,5.4637,5.4623,5.4606,5.4593,5.4588,5.4578,5.4574,5.458,5.4582,5.4574,5.4573,5.4562,5.4561,5.4561,5.4561,0,5.4842,5.4823,5.4808,5.4783,5.4777,5.477,5.4748,5.474,5.4724,5.4711,5.4706,5.4681,5.4665,5.4642,5.4617,5.4606,5.4596,5.4588,5.4604,5.4602,5.4606,5.4607,5.4621,5.4623,5.4595,5.4595,5.4595,0,5.4845,5.4838,5.4814,5.4807,5.4795,5.4783,5.4773,5.4752,5.4742,5.4719,5.4714,5.4697,5.4682,5.4657,5.4636,5.4618,5.461,5.4617,5.4607,5.4615,5.4612,5.4613,5.4613,5.4619,5.4619,5.4619,5.462,0,5.4854,5.4847,5.4833,5.4819,5.4808,5.4794,5.478,5.4774,5.475,5.4741,5.4725,5.4714,5.4692,5.4676,5.4656,5.4642,5.4628,5.4624,5.4623,5.463,5.464,5.4637,5.4612,5.4623,5.4622,5.4622,5.4622,5.4622,5.4864,5.4858,5.4842,5.4829,5.4817,5.4805,5.4797,5.4782,5.477,5.4752,5.474,5.4726,5.4708,5.468,5.4668,5.4656,5.465,5.4649,5.4649,5.465,5.4653,5.4643,5.4652,5.4652,5.4652,5.4652,5.4652,0,5.4873,5.4862,5.4851,5.4834,5.4824,5.4814,5.4799,5.4791,5.478,5.4765,5.4753,5.4737,5.4722,5.4702,5.4686,5.4681,5.4674,5.4678,5.4678,5.4675,5.4659,5.4661,5.4684,5.4684,5.4684,5.4684,5.4684,5.4684,5.4876,5.4867,5.4858,5.4844,5.4833,5.4821,5.4813,5.4803,5.4791,5.4775,5.4764,5.4752,5.4736,5.4719,5.4706,5.4701,5.4696,5.4702,5.4694,5.4679,5.4676,5.4673,5.4676,5.4701,5.4701,5.4712,5.4712,5.4713]}]]